Theta_e
354 350 349 349 342 338 335 335 342 340 340 338 337 336 336 331 329 331 330 331 332 327
349 347 342 341 341 335 339 334 340 338 337 336 334 333 332 326 327 328 329 329 329 328
338 337 338 339 338 338 339 337 337 336 336 335 333 331 331 325 327 327 324 323 326 327
334 335 337 337 337 338 340 338 335 334 333 331 329 330 330 328 325 323 324 325 323 324
334 334 336 335 335 336 335 335 333 331 328 326 326 327 326 325 323 322 322 322 322 321
328 330 332 332 332 332 331 330 330 328 326 325 324 324 324 324 323 322 321 321 321 320
323 323 324 325 325 325 325 325 325 326 325 324 324 323 323 322 322 324 322 324 322 321
318 318 318 319 320 321 321 321 321 321 321 322 321 320 322 323 325 326 325 326 323 324
314 314 315 316 316 317 317 317 317 317 317 317 316 308 305 312 320 322 324 324 324 324
311 310 311 312 312 312 313 314 314 314 313 314 317 305 303 305 316 317 320 322 323 320
308 308 309 309 309 310 310 310 310 310 310 310 311 302 299 301 312 314 315 317 319 320
305 305 305 306 307 308 308 308 308 308 309 309 309 301 298 301 308 308 309 310 313 316
305 305 305 306 306 306 306 306 306 306 308 305 306 299 296 298 302 301 302 305 306 303
304 304 305 305 305 304 303 302 301 300 298 298 299 301 296 296 301 300 301 302 303 305
Wind_Speed
13 10 9 11 11 9 9 9 11 10 9 9 8 7 7 6 6 5 7 9 9 10
12 11 10 12 11 8 8 8 11 11 10 10 10 9 7 7 6 7 8 8 9 10
11 11 11 10 11 9 9 9 11 12 12 11 11 10 9 7 9 9 8 8 8 9
8 8 9 8 8 8 8 9 10 11 11 12 12 11 11 11 10 11 11 11 11 12
7 6 5 5 5 5 7 8 10 11 13 13 13 13 13 14 13 14 14 14 14 14
5 3 2 2 3 5 6 8 10 12 13 14 14 15 15 16 17 17 17 17 16 15
6 5 4 5 6 7 8 10 11 13 14 15 16 17 18 19 19 18 19 18 18 17
6 6 6 6 7 8 10 11 13 14 16 17 17 16 20 20 19 19 19 18 19 18
8 8 9 10 11 12 13 14 15 16 18 19 16 17 11 14 18 20 20 19 19 19
10 11 12 13 14 15 16 16 17 18 20 21 20 15 15 15 18 20 20 20 19 19
12 14 14 15 15 16 16 17 17 18 20 20 18 15 12 12 19 20 22 21 21 21
13 15 15 16 16 16 16 17 17 18 20 20 19 15 9 10 17 18 20 20 21 21
14 15 16 16 17 16 16 17 15 17 17 18 18 13 13 9 7 13 12 15 19 21
15 16 16 16 14 14 15 15 15 15 14 17 17 17 15 15 15 13 13 11 11 11
Wind_Direction
179 185 187 176 163 175 172 179 169 186 188 198 197 202 203 220 237 267 255 267 271 283
169 168 165 159 168 169 180 170 177 188 192 200 204 212 211 243 241 249 251 263 261 268
153 158 161 169 187 173 180 189 183 196 201 207 215 220 220 243 228 237 247 254 259 261
149 152 164 179 186 185 189 201 203 211 216 223 227 227 227 242 254 239 239 246 251 253
140 148 161 181 187 205 221 227 237 234 234 237 238 238 236 240 249 239 240 244 247 254
83 84 49 307 285 274 265 258 256 254 253 252 253 254 249 249 250 252 253 251 252 255
42 22 350 318 295 280 272 267 262 260 263 264 265 264 262 258 256 251 251 252 253 256
5 351 327 311 300 292 281 274 272 271 268 267 264 259 256 255 254 255 257 255 253 252
327 317 309 301 296 289 285 284 281 275 270 268 264 266 255 262 267 266 267 260 252 251
304 293 289 288 285 281 279 278 275 274 273 271 270 266 258 250 265 264 262 262 261 259
296 294 293 290 287 285 281 278 276 276 277 277 276 273 264 258 274 271 270 270 264 259
300 297 294 289 288 286 283 281 278 277 279 279 281 281 264 272 279 276 277 275 268 262
296 293 290 291 291 290 286 284 284 285 285 286 290 310 313 294 284 266 265 271 273 274
296 295 291 288 286 291 294 295 295 303 303 293 271 268 254 247 264 263 266 259 256 257